Location: Bannatyne
(13.0833°N, 59.5333°W)
Time: 13:26:30
(UTC+00:00)

S-56A Canister/Altair - Visible Passes

Search period start: 27 January 2020 00:00
Search period end: 06 February 2020 00:00
Orbit: 634 x 2498 km, 38.9° (Epoch: 26 January)

Date Brightness Start Highest point End Pass type
(mag) Time Alt. Az. Time Alt. Az. Time Alt. Az.
27 Jan 10.3 00:04:44 10° NW 00:05:43 10° NNW 00:06:40 10° NNW visible
27 Jan 9.7 08:28:28 21° SSW 08:28:28 21° SSW 08:33:41 10° S visible
27 Jan 10.2 23:28:54 10° WNW 23:32:47 14° NNW 23:36:05 10° N visible
28 Jan 10.0 07:57:48 19° S 07:57:48 19° S 08:00:51 10° SSE visible
28 Jan 10.2 22:54:03 10° WNW 22:59:50 18° NW 23:04:25 10° N visible
29 Jan 10.5 07:27:07 13° SSE 07:27:07 13° SSE 07:28:03 10° SSE visible
29 Jan 10.2 22:19:25 10° W 22:26:52 23° NW 22:32:28 10° NNE visible
01 Feb 10.6 22:51:49 10° NW 22:53:50 11° NNW 22:55:42 10° N visible
02 Feb 10.5 22:16:03 10° NW 22:20:39 14° NNW 22:24:34 10° N visible
